TimeCDT,TemperatureF,Dew PointF,Humidity,Sea Level PressureIn,VisibilityMPH,Wind Direction,Wind SpeedMPH,Gust SpeedMPH,PrecipitationIn,Events,Conditions,WindDirDegrees,DateUTC
12:09 AM,30.2,26.6,86,29.94,10.0,North,20.7,31.1,N/A,,Overcast,350,2013-04-18 05:09:00
12:30 AM,28.4,26.6,93,29.95,5.0,North,27.6,35.7,N/A,,Overcast,350,2013-04-18 05:30:00
12:49 AM,28.4,26.6,93,29.96,2.5,North,28.8,35.7,N/A,,Overcast,350,2013-04-18 05:49:00
12:54 AM,28.9,26.1,89,30.01,3.0,North,29.9,38.0,N/A,,Overcast,350,2013-04-18 05:54:00
1:07 AM,28.4,26.6,93,29.97,6.0,North,27.6,38.0,N/A,,Overcast,350,2013-04-18 06:07:00
1:22 AM,28.4,26.6,93,29.96,7.0,North,29.9,36.8,N/A,,Overcast,350,2013-04-18 06:22:00
1:54 AM,28.0,26.1,92,30.01,5.0,North,25.3,32.2,N/A,,Overcast,350,2013-04-18 06:54:00
2:16 AM,28.4,24.8,86,29.97,2.0,North,27.6,36.8,N/A,,Overcast,350,2013-04-18 07:16:00
2:21 AM,26.6,24.8,93,29.96,1.5,NNW,27.6,36.8,N/A,,Overcast,340,2013-04-18 07:21:00
2:29 AM,26.6,24.8,93,29.96,2.0,North,31.1,39.1,N/A,,Overcast,350,2013-04-18 07:29:00
2:41 AM,26.6,24.8,93,29.95,3.0,NNW,29.9,38.0,N/A,,Overcast,340,2013-04-18 07:41:00
2:54 AM,27.0,25.0,92,30.01,2.5,NNW,25.3,34.5,N/A,,Overcast,340,2013-04-18 07:54:00
3:01 AM,26.6,24.8,93,29.95,1.8,NNW,20.7,31.1,N/A,,Overcast,330,2013-04-18 08:01:00
3:20 AM,26.6,24.8,93,29.96,1.5,NNW,25.3,33.4,N/A,,Overcast,330,2013-04-18 08:20:00
3:39 AM,26.6,24.8,93,29.96,3.0,NNW,26.5,34.5,N/A,,Overcast,340,2013-04-18 08:39:00
3:54 AM,27.0,24.1,89,30.01,5.0,NNW,28.8,34.5,N/A,,Overcast,340,2013-04-18 08:54:00
4:37 AM,26.6,24.8,93,29.96,7.0,NNW,25.3,34.5,N/A,,Overcast,340,2013-04-18 09:37:00
4:54 AM,26.1,23.0,88,30.02,6.0,NNW,25.3,34.5,N/A,,Overcast,340,2013-04-18 09:54:00
5:04 AM,26.6,23.0,86,29.97,5.0,NNW,26.5,32.2,N/A,,Overcast,340,2013-04-18 10:04:00
5:11 AM,26.6,23.0,86,29.97,5.0,NNW,26.5,35.7,N/A,,Overcast,340,2013-04-18 10:11:00
5:31 AM,26.6,21.2,80,29.97,10.0,NNW,26.5,36.8,N/A,,Overcast,340,2013-04-18 10:31:00
5:54 AM,26.1,21.9,84,30.03,10.0,NNW,28.8,34.5,N/A,,Partly Cloudy,340,2013-04-18 10:54:00
6:54 AM,26.1,23.0,88,30.04,10.0,NNW,18.4,28.8,N/A,,Mostly Cloudy,340,2013-04-18 11:54:00
7:54 AM,26.1,21.9,84,30.09,10.0,NNW,20.7,-,N/A,,Overcast,340,2013-04-18 12:54:00
8:54 AM,28.0,23.0,81,30.10,10.0,NNW,20.7,-,N/A,,Mostly Cloudy,340,2013-04-18 13:54:00
9:04 AM,28.4,23.0,80,30.04,10.0,NNW,20.7,26.5,N/A,,Scattered Clouds,340,2013-04-18 14:04:00
9:34 AM,28.4,23.0,80,30.05,10.0,North,23.0,29.9,N/A,,Mostly Cloudy,350,2013-04-18 14:34:00
9:54 AM,30.0,23.0,75,30.11,10.0,North,26.5,34.5,N/A,,Mostly Cloudy,350,2013-04-18 14:54:00
10:15 AM,30.2,23.0,75,30.05,10.0,North,27.6,35.7,N/A,,Scattered Clouds,350,2013-04-18 15:15:00
10:42 AM,32.0,23.0,69,30.05,10.0,North,27.6,39.1,N/A,,Mostly Cloudy,350,2013-04-18 15:42:00
10:51 AM,32.0,24.8,75,30.05,10.0,North,29.9,38.0,N/A,,Mostly Cloudy,350,2013-04-18 15:51:00
10:54 AM,33.1,24.1,70,30.11,10.0,North,28.8,39.1,N/A,,Mostly Cloudy,350,2013-04-18 15:54:00
11:05 AM,32.0,23.0,69,30.06,10.0,NNW,29.9,39.1,N/A,,Mostly Cloudy,340,2013-04-18 16:05:00
11:15 AM,32.0,23.0,69,30.06,10.0,NNW,25.3,39.1,N/A,,Mostly Cloudy,340,2013-04-18 16:15:00
11:19 AM,33.8,24.8,70,30.06,1.8,NNW,27.6,39.1,N/A,,Haze,340,2013-04-18 16:19:00
11:26 AM,33.8,23.0,65,30.06,10.0,NNW,28.8,34.5,N/A,,Overcast,340,2013-04-18 16:26:00
11:54 AM,33.1,21.9,64,30.12,10.0,NNW,32.2,39.1,N/A,,Mostly Cloudy,330,2013-04-18 16:54:00
12:54 PM,34.0,21.0,59,30.12,10.0,NNW,26.5,34.5,N/A,,Mostly Cloudy,330,2013-04-18 17:54:00
1:54 PM,35.1,21.0,57,30.12,10.0,NNW,24.2,33.4,N/A,,Overcast,330,2013-04-18 18:54:00
2:54 PM,35.1,19.0,52,30.13,10.0,NNW,23.0,32.2,N/A,,Overcast,340,2013-04-18 19:54:00
3:54 PM,35.1,19.0,52,30.13,10.0,NNW,25.3,32.2,N/A,,Overcast,330,2013-04-18 20:54:00
4:54 PM,36.0,19.0,50,30.12,10.0,NNW,25.3,31.1,N/A,,Overcast,330,2013-04-18 21:54:00
5:54 PM,37.0,19.0,48,30.12,10.0,NNW,20.7,29.9,N/A,,Overcast,340,2013-04-18 22:54:00
6:54 PM,37.0,18.0,46,30.13,10.0,NW,25.3,35.7,N/A,,Overcast,320,2013-04-18 23:54:00
7:54 PM,35.1,19.9,54,30.15,10.0,NNW,24.2,31.1,N/A,,Overcast,340,2013-04-19 00:54:00
8:54 PM,30.9,21.0,67,30.17,10.0,NNW,15.0,-,N/A,,Partly Cloudy,340,2013-04-19 01:54:00
9:54 PM,28.9,21.9,75,30.20,10.0,NNW,10.4,-,N/A,,Mostly Cloudy,330,2013-04-19 02:54:00
10:54 PM,28.0,21.0,75,30.21,10.0,NW,9.2,-,N/A,,Clear,320,2013-04-19 03:54:00
11:54 PM,26.1,19.0,75,30.21,10.0,NW,9.2,-,N/A,,Clear,310,2013-04-19 04:54:00